sat.trackr.live / text

‹ back to catalog

STARLINK-30541

NORAD 58057 · 2023-158G

PAYLOAD ACTIVE UNKNOWN

§ Identity

Operator
Country
US
Launch date
2023-10-13
Launch site
AFETR
Launch vehicle
Mass (kg)
RCS (m²)

Purposes: comms

External: N2YO · Heavens-Above · Gunter

§ Orbital elements

Epoch: 2026-09-20T08:27:48.093408Z

Period
94.27 min
Inclination
43.0044°
Eccentricity
0.0001364
Mean motion
15.27576209 rev/d
Perigee alt
482.1 km
Apogee alt
484.0 km
Semi-major
6,861.2 km
B*
2.7349e-5
RAAN
7.4830°
Arg perigee
272.7356°
Mean anomaly
87.3339°
Rev number
16,334

§ Raw data

STARLINK-305411 58057U 23158G   26263.35263997  .00000490  00000+0  27349-4 0  99982 58057  43.0044   7.4830 0001364 272.7356  87.3339 15.27576209163344

JSON: /api/v1/satellites/58057 · /tle

For live sub-satellite position, see the globe view (requires WebGL).

§ Visibility from observer

Set your observer location to see the next 7 days of passes ≥ 10°. The values pass through the URL so the page stays shareable.

No JS? Fill the form by hand. The geolocation button needs JavaScript.